Tillbaka till svenska Fidonet
English   Information   Debug  
FILM   0/18
FNEWS_PUBLISH   4983
FN_SYSOP   42232
FN_SYSOP_OLD1   71952
FTP_FIDO   0/2
FTSC_PUBLIC   0/13976
FUNNY   0/4886
GENEALOGY.EUR   0/71
GET_INFO   105
GOLDED   0/408
HAM   15407/16706
HOLYSMOKE   0/6791
HOT_SITES   0/1
HTMLEDIT   0/71
HUB203   466
HUB_100   264
HUB_400   39
HUMOR   0/29
IC   0/2851
INTERNET   0/424
INTERUSER   0/3
IP_CONNECT   719
JAMNNTPD   0/233
JAMTLAND   0/47
KATTY_KORNER   0/41
LAN   0/16
LINUX-USER   0/19
LINUXHELP   0/1155
LINUX   0/22371
LINUX_BBS   0/957
mail   18.68
mail_fore_ok   249
MENSA   0/341
MODERATOR   0/102
MONTE   0/992
MOSCOW_OKLAHOMA   0/1245
MUFFIN   0/783
MUSIC   0/321
N203_STAT   938
N203_SYSCHAT   313
NET203   321
NET204   69
NET_DEV   0/10
NORD.ADMIN   0/101
NORD.CHAT   0/2572
NORD.FIDONET   189
NORD.HARDWARE   0/28
NORD.KULTUR   0/114
NORD.PROG   0/32
NORD.SOFTWARE   0/88
NORD.TEKNIK   0/58
NORD   0/453
OCCULT_CHAT   0/93
OS2BBS   0/787
OS2DOSBBS   0/580
OS2HW   0/42
OS2INET   0/37
OS2LAN   0/134
OS2PROG   0/36
OS2REXX   0/113
OS2USER-L   207
OS2   0/4831
OSDEBATE   0/18996
PASCAL   0/490
PERL   0/457
PHP   0/45
POINTS   0/405
POLITICS   0/29554
POL_INC   0/14731
PSION   103
R20_ADMIN   1133
R20_AMATORRADIO   0/2
R20_BEST_OF_FIDONET   16
R20_CHAT   0/897
R20_DEPP   0/3
R20_DEV   400
R20_ECHO2   1886
R20_ECHOPRES   0/35
R20_ESTAT   0/719
R20_FIDONETPROG...
...RAM.MYPOINT
  0/2
R20_FIDONETPROGRAM   0/22
R20_FIDONET   0/248
R20_FILEFIND   0/24
R20_FILEFOUND   0/22
R20_HIFI   0/3
R20_INFO2   3778
R20_INTERNET   0/12940
R20_INTRESSE   0/60
R20_INTR_KOM   0/99
R20_KANDIDAT.CHAT   42
R20_KANDIDAT   28
R20_KOM_DEV   112
R20_KONTROLL   0/13360
R20_KORSET   0/18
R20_LOKALTRAFIK   0/24
R20_MODERATOR   0/1852
R20_NC   76
R20_NET200   245
R20_NETWORK.OTH...
...ERNETS
  0/13
R20_OPERATIVSYS...
...TEM.LINUX
  0/44
R20_PROGRAMVAROR   0/1
R20_REC2NEC   534
R20_SFOSM   0/341
R20_SF   0/108
R20_SPRAK.ENGLISH   0/1
R20_SQUISH   107
R20_TEST   2
R20_WORST_OF_FIDONET   20
RAR   0/9
RA_MULTI   106
RA_UTIL   0/162
REGCON.EUR   0/2069
REGCON   0/13
SCIENCE   0/1206
SF   0/239
SHAREWARE_SUPPORT   0/5146
SHAREWRE   0/14
SIMPSONS   0/169
STATS_OLD1   0/2539.065
STATS_OLD2   0/2530
STATS_OLD3   0/2395.095
STATS_OLD4   0/1692.25
SURVIVOR   0/495
SYSOPS_CORNER   0/3
SYSOP   0/84
TAGLINES   0/112
TEAMOS2   0/4530
TECH   0/2617
TEST.444   0/105
TRAPDOOR   0/19
TREK   0/755
TUB   0/290
UFO   0/40
UNIX   0/1316
USA_EURLINK   0/102
USR_MODEMS   0/1
VATICAN   0/2740
VIETNAM_VETS   0/14
VIRUS   0/378
VIRUS_INFO   0/201
VISUAL_BASIC   0/473
WHITEHOUSE   0/5187
WIN2000   0/101
WIN32   0/30
WIN95   0/4291
WIN95_OLD1   0/70272
WINDOWS   0/1517
WWB_SYSOP   0/419
WWB_TECH   0/810
ZCC-PUBLIC   0/1
ZEC   4

 
4DOS   0/134
ABORTION   0/7
ALASKA_CHAT   0/506
ALLFIX_FILE   0/1313
ALLFIX_FILE_OLD1   0/7997
ALT_DOS   0/152
AMATEUR_RADIO   0/1039
AMIGASALE   0/14
AMIGA   0/331
AMIGA_INT   0/1
AMIGA_PROG   0/20
AMIGA_SYSOP   0/26
ANIME   0/15
ARGUS   0/924
ASCII_ART   0/340
ASIAN_LINK   0/651
ASTRONOMY   0/417
AUDIO   0/92
AUTOMOBILE_RACING   0/105
BABYLON5   0/17862
BAG   135
BATPOWER   0/361
BBBS.ENGLISH   0/382
BBSLAW   0/109
BBS_ADS   0/5290
BBS_INTERNET   0/507
BIBLE   0/3563
BINKD   0/1119
BINKLEY   0/215
BLUEWAVE   0/2173
CABLE_MODEMS   0/25
CBM   0/46
CDRECORD   0/66
CDROM   0/20
CLASSIC_COMPUTER   0/378
COMICS   0/15
CONSPRCY   0/899
COOKING   41979
COOKING_OLD1   0/24719
COOKING_OLD2   0/40862
COOKING_OLD3   0/37489
COOKING_OLD4   0/35496
COOKING_OLD5   9370
C_ECHO   0/189
C_PLUSPLUS   0/31
DIRTY_DOZEN   0/201
DOORGAMES   0/2332
DOS_INTERNET   0/196
duplikat   6102
ECHOLIST   0/18295
EC_SUPPORT   0/318
ELECTRONICS   0/359
ELEKTRONIK.GER   1534
ENET.LINGUISTIC   0/13
ENET.POLITICS   0/4
ENET.SOFT   0/11701
ENET.SYSOP   34332
ENET.TALKS   0/32
ENGLISH_TUTOR   0/2000
EVOLUTION   0/1335
FDECHO   0/217
FDN_ANNOUNCE   0/7068
FIDONEWS   25122
FIDONEWS_OLD1   0/49742
FIDONEWS_OLD2   0/35949
FIDONEWS_OLD3   0/30874
FIDONEWS_OLD4   14833/37224
FIDO_SYSOP   12970
FIDO_UTIL   0/180
FILEFIND   0/209
FILEGATE   0/212
Möte HAM, 16706 texter
 lista första sista föregående nästa
Text 2509, 745 rader
Skriven 2008-09-18 22:00:22 av Amsat List (1:323/120.0)
Ärende: [keps]  orb08262.amsa
=============================
[keps]  orb08262.amsa

Return-Path: <keps-bounces@amsat.org>
X-Rcpt: craig.healy@chowda.com
X-UIDL: 1221789309.10254

SB KEPS @ AMSAT  $ORB08262.O
Orbital Elements  08262.OSCAR

HR AMSAT ORBITAL ELEMENTS FOR OSCAR SATELLITES
FROM WA5QGD FORT WORTH,TX September 18, 2008
Send Subscribe/unsubscribe to KEPS at 
http://www.amsat.org/mailman/listinfo/keps
BID: ORB08262.O
TO ALL RADIO AMATEURS BT

Satellite: AO-07
Catalog number: 07530
Epoch time:      08262.58738398
Element set:     281
Inclination:      101.4602 deg
RA of node:       290.9391 deg
Eccentricity:    0.0012191
Arg of perigee:   079.3992 deg
Mean anomaly:     280.8456 deg
Mean motion:   12.53574160 rev/day
Decay rate:       -2.7e-07 rev/day^2
Epoch rev:           54868
Checksum:              321

Satellite: AO-10
Catalog number: 14129
Epoch time:      08260.96983758
Element set:     561
Inclination:      026.0330 deg
RA of node:       195.2478 deg
Eccentricity:    0.5964420
Arg of perigee:   157.6305 deg
Mean anomaly:     246.2422 deg
Mean motion:   02.05869325 rev/day
Decay rate:       -9.6e-07 rev/day^2
Epoch rev:           18999
Checksum:              333

Satellite: UO-11
Catalog number: 14781
Epoch time:      08262.50698165
Element set:     770
Inclination:      098.1473 deg
RA of node:       297.9001 deg
Eccentricity:    0.0010006
Arg of perigee:   128.9428 deg
Mean anomaly:     231.2641 deg
Mean motion:   14.79663596 rev/day
Decay rate:       -6.0e-07 rev/day^2
Epoch rev:           31765
Checksum:              311

Satellite: RS-15
Catalog number: 23439
Epoch time:      08261.69659202
Element set:    0186
Inclination:      064.8186 deg
RA of node:       345.4540 deg
Eccentricity:    0.0146265
Arg of perigee:   104.9475 deg
Mean anomaly:     256.7691 deg
Mean motion:   11.27552769 rev/day
Decay rate:       -3.9e-07 rev/day^2
Epoch rev:           56539
Checksum:              343

Satellite: FO-29
Catalog number: 24278
Epoch time:      08262.74536038
Element set:     860
Inclination:      098.5774 deg
RA of node:       166.7604 deg
Eccentricity:    0.0350529
Arg of perigee:   333.5253 deg
Mean anomaly:     024.8344 deg
Mean motion:   13.52939763 rev/day
Decay rate:       -7.2e-07 rev/day^2
Epoch rev:           59704
Checksum:              339

Satellite: SO-33
Catalog number: 25509
Epoch time:      08261.94602420
Element set:    0284
Inclination:      031.4287 deg
RA of node:       151.8672 deg
Eccentricity:    0.0354460
Arg of perigee:   118.2881 deg
Mean anomaly:     245.3978 deg
Mean motion:   14.28224519 rev/day
Decay rate:        5.1e-07 rev/day^2
Epoch rev:           51688
Checksum:              312

Satellite: AO-40
Catalog number: 26609
Epoch time:      08261.15347167
Element set:    0121
Inclination:      007.8057 deg
RA of node:       060.3522 deg
Eccentricity:    0.7935485
Arg of perigee:   123.8033 deg
Mean anomaly:     337.0196 deg
Mean motion:   01.25586612 rev/day
Decay rate:      -3.56e-06 rev/day^2
Epoch rev:           03619
Checksum:              297

Satellite: VO-52
Catalog number: 28650
Epoch time:      08261.59982595
Element set:    0034
Inclination:      097.7818 deg
RA of node:       325.6333 deg
Eccentricity:    0.0026786
Arg of perigee:   197.1448 deg
Mean anomaly:     162.8864 deg
Mean motion:   14.81496822 rev/day
Decay rate:      -2.66e-06 rev/day^2
Epoch rev:           18228
Checksum:              358

Satellite: PO-63
Catalog number: 29712
Epoch time:      08262.57754734
Element set:     806
Inclination:      097.8675 deg
RA of node:       318.9740 deg
Eccentricity:    0.0015431
Arg of perigee:   078.3546 deg
Mean anomaly:     281.9404 deg
Mean motion:   14.80266975 rev/day
Decay rate:       3.75e-06 rev/day^2
Epoch rev:            9128
Checksum:              346

/EX
SB KEPS @ AMSAT  $ORB08262.D
Orbital Elements  08262.MICROS

HR AMSAT ORBITAL ELEMENTS FOR THE MICROSATS
FROM WA5QGD FORT WORTH,TX September 18, 2008
Send Subscribe/unsubscribe to KEPS at 
http://www.amsat.org/mailman/listinfo/keps
BID: ORB08262.D
TO ALL RADIO AMATEURS BT

Satellite: AO-16
Catalog number: 20439
Epoch time:      08262.50375341
Element set:     420
Inclination:      098.2412 deg
RA of node:       237.8448 deg
Eccentricity:    0.0009942
Arg of perigee:   259.3018 deg
Mean anomaly:     100.7044 deg
Mean motion:   14.31802760 rev/day
Decay rate:       -1.5e-07 rev/day^2
Epoch rev:           97427
Checksum:              286

Satellite: LO-19
Catalog number: 20442
Epoch time:      08262.46572843
Element set:     343
Inclination:      098.2097 deg
RA of node:       246.0569 deg
Eccentricity:    0.0010982
Arg of perigee:   255.1572 deg
Mean anomaly:     104.8407 deg
Mean motion:   14.32041066 rev/day
Decay rate:        4.6e-07 rev/day^2
Epoch rev:           97442
Checksum:              301

Satellite: AO-27
Catalog number: 22825
Epoch time:      08261.54023401
Element set:    0064
Inclination:      098.3955 deg
RA of node:       218.1442 deg
Eccentricity:    0.0008423
Arg of perigee:   355.0274 deg
Mean anomaly:     005.0817 deg
Mean motion:   14.29246919 rev/day
Decay rate:        2.8e-07 rev/day^2
Epoch rev:           78096
Checksum:              297

Satellite: IO-26
Catalog number: 22826
Epoch time:      08261.50820347
Element set:    0777
Inclination:      098.3874 deg
RA of node:       218.9809 deg
Eccentricity:    0.0008936
Arg of perigee:   350.9333 deg
Mean anomaly:     009.1686 deg
Mean motion:   14.29496384 rev/day
Decay rate:       -6.0e-08 rev/day^2
Epoch rev:           78105
Checksum:              343

